DW6345 Murcia ES current weather conditions

sailwx.info

Wind from 225 at 2 knots gusting 7

Air temperature 25.6° C
Dewpoint 13.7° C

Last reported at 2014-Oct-21 20:35 UTC.
Time now 2014-Oct-21 21:45 UTC

Location: N 37°60' W 001°06'.
View on Google Maps.

See reports from other nearby stations

  
Tides and Currents Weather Stations Pressure Air Temp Water Temp Dewpoint Dewpoint Depression Visibility Wind Speed Wind Dir Waves Ship Positions
date/time (UTC)wind fromknots sea level pressurealtimeterstation pressurevisibilityair tempwater tempwave heightnotes
2014-Oct-21 20:35 225 2 gusting 7 25.6
2014-Oct-21 20:25 236 4 gusting 7 25.6
2014-Oct-21 20:15 270 2 gusting 6 26.1
2014-Oct-21 20:05 270 4 gusting 6 26.7
2014-Oct-21 19:55 270 3 gusting 8 27.2
2014-Oct-21 19:45 286 6 gusting 8 27.2
2014-Oct-21 19:35 298 4 gusting 10 26.7
2014-Oct-21 19:25 225 4 gusting 10 27.2
2014-Oct-21 19:15 288 6 gusting 10 26.7
2014-Oct-21 19:05 225 0 gusting 1 27.2
2014-Oct-21 18:55 180 0 gusting 5 27.2
2014-Oct-21 18:45 270 1 gusting 5 27.8
2014-Oct-21 18:35 254 2 gusting 6 27.8
2014-Oct-21 18:25 270 2 gusting 6 28.3
2014-Oct-21 18:15 270 2 gusting 6 28.3
2014-Oct-21 18:05 270 2 gusting 6 28.3
2014-Oct-21 17:55 315 1 gusting 2 28.9
2014-Oct-21 17:45 282 1 gusting 5 28.9
2014-Oct-21 17:35 180 1 gusting 4 29.4
2014-Oct-21 17:25 180 1 gusting 5 30.0
2014-Oct-21 17:15 154 2 gusting 2 30.0
2014-Oct-21 17:05 180 0 gusting 5 30.6
2014-Oct-21 16:55 180 1 gusting 5 31.1
2014-Oct-21 16:45 180 2 gusting 6 31.1
2014-Oct-21 16:35 180 4 gusting 6 31.7
2014-Oct-21 16:25 165 2 gusting 7 31.7
2014-Oct-21 16:15 180 5 gusting 6 32.2
2014-Oct-21 16:05 144 3 gusting 6 32.8
2014-Oct-21 15:55 180 3 gusting 6 32.8
2014-Oct-21 15:45 212 5 gusting 7 33.3
2014-Oct-21 15:35 180 5 gusting 8 33.9
2014-Oct-21 15:25 180 2 gusting 6 34.4
2014-Oct-21 15:15 164 1 gusting 4 35.0
2014-Oct-21 15:05 180 35.0
2014-Oct-21 14:55 180 2 gusting 5 35.0
2014-Oct-21 14:35 180 1 gusting 5 34.4
2014-Oct-21 14:25 191 2 gusting 4 34.4
2014-Oct-21 14:15 180 0 gusting 5 34.4
2014-Oct-21 14:05 135 0 gusting 4 34.4
2014-Oct-21 13:55 247 33.9
2014-Oct-21 13:35 137 1 gusting 4 33.3
2014-Oct-21 13:25 225 2 gusting 6 33.3
2014-Oct-21 13:15 225 1 gusting 5 32.8
2014-Oct-21 13:05 225 1 gusting 5 32.2
2014-Oct-21 12:55 270 1 gusting 6 32.2
2014-Oct-21 12:45 270 1 gusting 5 31.7
2014-Oct-21 12:35 242 1 gusting 5 31.7
2014-Oct-21 12:25 270 3 gusting 6 31.1
2014-Oct-21 12:15 270 1 gusting 6 31.1
2014-Oct-21 12:05 195 2 gusting 6 30.6
2014-Oct-21 11:55 225 3 gusting 5 30.6
2014-Oct-21 11:45 249 3 gusting 6 30.0
2014-Oct-21 11:35 270 2 gusting 6 30.0
2014-Oct-21 11:25 236 2 gusting 6 29.4
2014-Oct-21 11:15 270 2 gusting 6 28.9
2014-Oct-21 11:05 315 4 gusting 6 28.3
2014-Oct-21 10:55 295 2 gusting 7 28.3
2014-Oct-21 10:45 315 5 gusting 10 27.8
2014-Oct-21 10:35 270 0 gusting 6 27.2
2014-Oct-21 10:25 270 2 gusting 6 26.7
2014-Oct-21 10:15 270 2 gusting 5 26.7
2014-Oct-21 10:05 225 1 gusting 5 26.1
2014-Oct-21 09:55 269 1 gusting 4 25.6
2014-Oct-21 09:45 275 1 gusting 5 25.0
2014-Oct-21 09:35 276 2 gusting 5 24.4
2014-Oct-21 09:25 315 1 gusting 5 23.9
2014-Oct-21 09:15 294 1 gusting 5 23.3
2014-Oct-21 09:05 299 0 gusting 4 23.3
2014-Oct-21 08:55 315 2 gusting 5 22.8
2014-Oct-21 08:45 276 1 gusting 5 22.2
2014-Oct-21 08:35 030 1 gusting 5 21.7
2014-Oct-21 08:25 282 0 gusting 4 21.1
2014-Oct-21 08:15 287 1 gusting 4 20.6
2014-Oct-21 08:05 315 1 gusting 2 20.0
2014-Oct-21 07:55 288 2 gusting 4 19.4
2014-Oct-21 07:45 270 0 gusting 2 18.9
2014-Oct-21 07:35 270 0 gusting 4 18.3
2014-Oct-21 07:25 314 1 gusting 4 18.3
2014-Oct-21 07:15 282 0 gusting 2 17.8
2014-Oct-21 07:05 225 1 gusting 2 17.2
2014-Oct-21 06:55 225 1 gusting 4 16.7
2014-Oct-21 06:45 225 2 gusting 2 16.7
2014-Oct-21 06:35 180 0 gusting 2 17.2
2014-Oct-21 06:25 270 0 gusting 2 17.2
2014-Oct-21 06:15 270 0 gusting 2 17.2
2014-Oct-21 06:05 225 1 gusting 4 17.2
2014-Oct-21 05:55 180 1 gusting 2 17.8
2014-Oct-21 05:45 192 0 gusting 2 17.8
2014-Oct-21 05:35 263 0 gusting 2 17.8
2014-Oct-21 05:25 270 1 gusting 2 17.8
2014-Oct-21 05:15 270 1 gusting 2 17.2
2014-Oct-21 05:05 315 0 gusting 2 17.2
2014-Oct-21 04:55 303 1 gusting 2 17.2
2014-Oct-21 04:45 315 1 gusting 2 17.2
2014-Oct-21 04:35 270 0 gusting 2 17.2
2014-Oct-21 04:25 225 0 gusting 4 17.2
2014-Oct-21 04:15 225 2 gusting 5 17.2
2014-Oct-21 04:05 180 2 gusting 5 17.2
2014-Oct-21 03:55 248 2 gusting 5 17.2
2014-Oct-21 03:45 180 2 gusting 5 17.8
2014-Oct-21 03:35 200 1 gusting 4 17.8
2014-Oct-21 03:25 180 0 gusting 2 17.8
2014-Oct-21 03:15 270 1 gusting 2 17.8
2014-Oct-21 03:05 315 0 gusting 2 17.8
2014-Oct-21 02:55 315 1 gusting 4 17.8
2014-Oct-21 02:45 315 1 gusting 4 17.8
2014-Oct-21 02:35 315 1 gusting 4 18.3
2014-Oct-21 02:25 270 1 gusting 4 18.3
2014-Oct-21 02:15 270 1 gusting 4 17.8
2014-Oct-21 02:05 180 1 gusting 5 18.3
2014-Oct-21 01:55 267 2 gusting 5 18.3
2014-Oct-21 01:45 241 2 gusting 4 18.3
2014-Oct-21 01:35 225 2 gusting 5 18.3
2014-Oct-21 01:25 225 1 gusting 2 18.3
2014-Oct-21 01:15 225 0 gusting 2 18.9
2014-Oct-21 01:05 225 0 gusting 5 18.9
2014-Oct-21 00:55 213 3 gusting 5 18.9
2014-Oct-21 00:45 225 1 gusting 4 18.9
2014-Oct-21 00:35 270 1 gusting 4 18.9
2014-Oct-21 00:25 308 1 gusting 5 19.4
2014-Oct-21 00:15 315 1 gusting 2 19.4
2014-Oct-21 00:05 314 0 gusting 2 19.4
2014-Oct-20 23:55 270 1 gusting 5 19.4
2014-Oct-20 23:45 294 0 gusting 5 19.4
2014-Oct-20 23:35 202 2 gusting 5 20.0
2014-Oct-20 23:25 180 2 gusting 5 20.6
2014-Oct-20 23:15 270 2 gusting 5 20.0
2014-Oct-20 23:05 314 2 gusting 5 20.0
2014-Oct-20 22:55 315 1 gusting 4 20.6
2014-Oct-20 22:45 270 0 gusting 2 20.6
2014-Oct-20 22:35 304 0 gusting 2 20.6
2014-Oct-20 22:25 270 0 gusting 2 20.6
2014-Oct-20 22:14 270 0 gusting 2 20.6
2014-Oct-20 22:05 315 1 gusting 2 20.6
2014-Oct-20 21:55 210 0 gusting 2 20.6
2014-Oct-20 21:45 227 1 gusting 2 20.0
2014-Oct-20 21:35 270 0 gusting 2 20.0
2014-Oct-20 21:25 225 0 gusting 2 20.0
2014-Oct-20 21:15 180 0 gusting 1 20.0
2014-Oct-20 21:05 225 20.6
2014-Oct-20 20:55 265 20.6
2014-Oct-20 20:45 045 20.6
2014-Oct-20 20:35 090 20.6
2014-Oct-20 20:25 045 20.6
2014-Oct-20 20:15 180 0 gusting 1 20.6
2014-Oct-20 20:05 045 21.1
2014-Oct-20 19:55 135 21.1
2014-Oct-20 19:45 135 0 gusting 1 21.1
2014-Oct-20 19:35 141 21.1
2014-Oct-20 19:25 045 0 gusting 2 21.1
2014-Oct-20 19:15 063 0 gusting 2 21.7
2014-Oct-20 19:05 090 0 gusting 2 21.7
2014-Oct-20 18:55 071 0 gusting 2 21.7
2014-Oct-20 18:45 090 1 gusting 2 21.7
2014-Oct-20 18:35 088 1 gusting 4 22.2
2014-Oct-20 18:25 090 0 gusting 2 22.2
2014-Oct-20 18:15 077 0 gusting 4 22.2
2014-Oct-20 18:05 090 2 gusting 5 22.8
2014-Oct-20 17:55 047 2 gusting 5 22.8
2014-Oct-20 17:45 090 2 gusting 5 23.3
2014-Oct-20 17:35 135 4 gusting 6 23.3
2014-Oct-20 17:25 090 4 gusting 6 23.9
2014-Oct-20 17:15 090 3 gusting 6 23.9
2014-Oct-20 17:05 090 2 gusting 7 24.4
2014-Oct-20 16:55 090 3 gusting 7 25.0
2014-Oct-20 16:45 090 5 gusting 8 25.6
2014-Oct-20 16:35 090 5 gusting 8 25.6
2014-Oct-20 16:25 089 4 gusting 7 26.1
2014-Oct-20 16:15 098 5 gusting 8 26.7
2014-Oct-20 16:05 090 5 gusting 10 26.7
2014-Oct-20 15:55 101 4 gusting 11 27.2
2014-Oct-20 15:45 090 5 gusting 10 27.2
2014-Oct-20 15:35 090 6 gusting 10 27.8
2014-Oct-20 15:25 090 5 gusting 8 27.8
2014-Oct-20 15:15 123 4 gusting 10 27.8
2014-Oct-20 15:05 121 5 gusting 10 28.3
2014-Oct-20 14:55 077 4 gusting 11 28.3
2014-Oct-20 14:45 090 5 gusting 10 28.3
2014-Oct-20 14:35 101 4 gusting 11 28.9
2014-Oct-20 14:25 065 4 gusting 8 29.4
2014-Oct-20 14:15 090 3 gusting 6 29.4
2014-Oct-20 14:05 090 2 gusting 6 28.9
2014-Oct-20 13:55 090 5 gusting 7 28.9
2014-Oct-20 13:45 049 2 gusting 8 28.9
2014-Oct-20 13:35 118 3 gusting 7 28.9
2014-Oct-20 13:25 135 2 gusting 6 28.9
2014-Oct-20 13:15 090 3 gusting 6 28.9
2014-Oct-20 13:05 045 0 gusting 6 28.3
2014-Oct-20 12:55 135 2 gusting 6 28.3
2014-Oct-20 12:45 090 2 gusting 6 28.9
2014-Oct-20 12:35 150 1 gusting 5 28.9
2014-Oct-20 12:25 090 4 gusting 6 28.9
2014-Oct-20 12:15 087 27.8
2014-Oct-20 12:05 098 2 gusting 7 27.8
2014-Oct-20 11:55 090 3 gusting 7 27.8
2014-Oct-20 11:45 103 2 gusting 6 28.3
2014-Oct-20 11:35 097 2 gusting 5 28.3
2014-Oct-20 11:25 104 0 gusting 2 27.8
2014-Oct-20 11:15 164 1 gusting 2 27.2
2014-Oct-20 11:05 135 0 gusting 2 26.7
2014-Oct-20 10:55 254 1 gusting 5 26.1
2014-Oct-20 10:45 149 1 gusting 4 25.0
2014-Oct-20 10:35 309 0 gusting 2 24.4
2014-Oct-20 10:25 315 0 gusting 5 24.4
2014-Oct-20 10:15 225 0 gusting 2 23.9
2014-Oct-20 10:05 045 0 gusting 4 23.3
2014-Oct-20 09:55 288 2 gusting 4 22.8
2014-Oct-20 09:45 275 0 gusting 4 22.8
2014-Oct-20 09:35 310 1 gusting 4 22.2
2014-Oct-20 09:25 270 1 gusting 5 22.2
2014-Oct-20 09:15 253 0 gusting 5 21.7
2014-Oct-20 09:05 270 0 gusting 5 21.1
2014-Oct-20 08:55 307 1 gusting 4 21.1
2014-Oct-20 08:45 315 0 gusting 4 20.6
2014-Oct-20 08:35 270 1 gusting 2 20.6
2014-Oct-20 08:25 282 1 gusting 2 20.0
2014-Oct-20 08:15 286 0 gusting 2 19.4
2014-Oct-20 08:05 315 0 gusting 4 18.9
2014-Oct-20 07:55 315 0 gusting 2 18.9
2014-Oct-20 07:45 302 0 gusting 5 18.3
2014-Oct-20 07:35 270 2 gusting 5 18.3
2014-Oct-20 07:25 291 1 gusting 4 17.8
2014-Oct-20 07:15 287 0 gusting 2 17.8
2014-Oct-20 07:05 202 1 gusting 2 17.8
2014-Oct-20 06:55 265 1 gusting 2 17.8
2014-Oct-20 06:45 270 1 gusting 5 17.8
2014-Oct-20 06:35 270 1 gusting 4 17.8
2014-Oct-20 06:25 270 1 gusting 2 17.8
2014-Oct-20 06:15 270 1 gusting 4 17.8
2014-Oct-20 06:05 270 0 gusting 2 17.8
2014-Oct-20 05:55 304 0 gusting 4 17.8
2014-Oct-20 05:45 280 1 gusting 4 17.8
2014-Oct-20 05:35 285 2 gusting 4 17.8
2014-Oct-20 05:25 270 0 gusting 4 17.8
2014-Oct-20 05:15 315 1 gusting 5 18.3
2014-Oct-20 05:05 315 1 gusting 5 18.3
2014-Oct-20 04:55 290 0 gusting 5 18.3
2014-Oct-20 04:45 225 1 gusting 5 18.3
2014-Oct-20 04:35 270 2 gusting 5 17.8
2014-Oct-20 04:25 315 0 gusting 2 18.3
2014-Oct-20 04:15 270 0 gusting 2 18.3
2014-Oct-20 04:05 270 2 gusting 5 18.3
2014-Oct-20 03:55 345 2 gusting 5 18.3
2014-Oct-20 03:45 270 1 gusting 5 18.3
2014-Oct-20 03:35 291 1 gusting 5 18.3
2014-Oct-20 03:25 287 1 gusting 6 18.9
2014-Oct-20 03:15 270 4 gusting 6 18.9
2014-Oct-20 03:05 270 1 gusting 5 18.9
2014-Oct-20 02:55 270 1 gusting 6 18.9
2014-Oct-20 02:45 242 2 gusting 6 18.9
2014-Oct-20 02:35 270 3 gusting 6 18.3
2014-Oct-20 02:25 270 2 gusting 6 18.3
2014-Oct-20 02:15 270 3 gusting 6 18.3
2014-Oct-20 02:05 270 5 gusting 6 18.3
2014-Oct-20 01:55 296 2 gusting 6 18.3
2014-Oct-20 01:45 270 2 gusting 5 18.9
2014-Oct-20 01:35 180 2 gusting 6 18.9
2014-Oct-20 01:25 228 4 gusting 6 18.9
2014-Oct-20 01:15 270 2 gusting 5 18.9
2014-Oct-20 01:05 270 2 gusting 5 18.9
2014-Oct-20 00:55 270 2 gusting 4 18.9
2014-Oct-20 00:45 248 2 gusting 2 18.9
2014-Oct-20 00:35 180 1 gusting 2 19.4
2014-Oct-20 00:25 180 19.4
2014-Oct-20 00:15 315 20.0
2014-Oct-20 00:05 270 20.0
2014-Oct-19 23:55 270 0 gusting 2 20.0
2014-Oct-19 23:45 249 0 gusting 5 20.0
2014-Oct-19 23:35 270 1 gusting 5 20.0
2014-Oct-19 23:25 296 2 gusting 5 20.0
2014-Oct-19 23:15 270 1 gusting 2 20.0
2014-Oct-19 23:05 225 0 gusting 4 20.0
2014-Oct-19 22:55 255 2 gusting 5 20.0
2014-Oct-19 22:45 243 1 gusting 4 20.0
2014-Oct-19 22:35 180 20.0
2014-Oct-19 22:25 248 20.0
2014-Oct-19 22:14 248 20.0
2014-Oct-19 22:05 225 20.0
2014-Oct-19 21:55 181 20.0
2014-Oct-19 21:45 315 20.0
2014-Oct-19 21:35 315 20.6
2014-Oct-19 21:25 315 20.6
2014-Oct-19 21:15 315 20.6
2014-Oct-19 21:05 315 0 gusting 1 20.6